| time (UTC) | temp F | wind direction | speed MPH | gust MPH | rain 1hr in | rain 24hr in | rain mn in | humidity % | barometer mb |
| 20260508193905 | 76 | 76 | 2.0 | 7.0 | 0.00 | 0.00 | 0.00 | 17 | 1007.5 |
| 20260508193405 | 76 | 352 | 2.0 | 7.0 | 0.00 | 0.00 | 0.00 | 17 | 1007.6 |
| 20260508192405 | 76 | 90 | 1.0 | 5.0 | 0.00 | 0.00 | 0.00 | 18 | 1007.7 |
| 20260508190905 | 74 | 238 | 2.0 | 7.0 | 0.00 | 0.00 | 0.00 | 19 | 1008.0 |
| 20260508190405 | 74 | 242 | 4.0 | 7.0 | 0.00 | 0.00 | 0.00 | 17 | 1008.1 |
| 20260508185405 | 75 | 303 | 2.0 | 7.0 | 0.00 | 0.00 | 0.00 | 18 | 1008.2 |
| 20260508184906 | 74 | 291 | 3.0 | 7.0 | 0.00 | 0.00 | 0.00 | 18 | 1008.4 |
| 20260508184406 | 74 | 343 | 3.0 | 8.0 | 0.00 | 0.00 | 0.00 | 19 | 1008.4 |
| 20260508183905 | 74 | 42 | 3.0 | 8.0 | 0.00 | 0.00 | 0.00 | 17 | 1008.4 |
| 20260508183405 | 74 | 297 | 2.0 | 6.0 | 0.00 | 0.00 | 0.00 | 18 | 1008.5 |
| 20260508182405 | 73 | 63 | 1.0 | 6.0 | 0.00 | 0.00 | 0.00 | 20 | 1008.7 |
| 20260508181405 | 73 | 327 | 2.0 | 6.0 | 0.00 | 0.00 | 0.00 | 18 | 1008.9 |
| 20260508180905 | 72 | 338 | 3.0 | 7.0 | 0.00 | 0.00 | 0.00 | 20 | 1008.9 |
| 20260508180406 | 72 | 32 | 2.0 | 7.0 | 0.00 | 0.00 | 0.00 | 20 | 1009.0 |
| 20260508175405 | 70 | 267 | 2.0 | 6.0 | 0.00 | 0.00 | 0.00 | 20 | 1009.3 |
| 20260508174905 | 71 | 268 | 2.0 | 6.0 | 0.00 | 0.00 | 0.00 | 21 | 1009.4 |
| 20260508173905 | 71 | 62 | 2.0 | 5.0 | 0.00 | 0.00 | 0.00 | 21 | 1009.6 |
| 20260508165905 | 69 | 3 | 1.0 | 3.0 | 0.00 | 0.00 | 0.00 | 23 | 1010.2 |
| 20260508164904 | 68 | 251 | 1.0 | 7.0 | 0.00 | 0.00 | 0.00 | 24 | 1010.2 |
| 20260508163905 | 66 | 247 | 2.0 | 7.0 | 0.00 | 0.00 | 0.00 | 22 | 1010.4 |
| 20260508162905 | 66 | 22 | 1.0 | 5.0 | 0.00 | 0.00 | 0.00 | 23 | 1010.4 |
| 20260508162405 | 65 | 296 | 1.0 | 6.0 | 0.00 | 0.00 | 0.00 | 25 | 1010.5 |
| 20260508161905 | 64 | 233 | 3.0 | 6.0 | 0.00 | 0.00 | 0.00 | 24 | 1010.4 |
| 20260508161405 | 64 | 230 | 2.0 | 3.0 | 0.00 | 0.00 | 0.00 | 23 | 1010.5 |
| 20260508160904 | 64 | 268 | 1.0 | 3.0 | 0.00 | 0.00 | 0.00 | 24 | 1010.5 |
| 20260508154406 | 62 | 322 | 3.0 | 6.0 | 0.00 | 0.00 | 0.00 | 24 | 1010.8 |
| 20260508153405 | 61 | 351 | 2.0 | 3.0 | 0.00 | 0.00 | 0.00 | 24 | 1010.8 |
| 20260508151405 | 60 | 300 | 2.0 | 3.0 | 0.00 | 0.00 | 0.00 | 26 | 1011.0 |
| 20260508145905 | 59 | 330 | 0.0 | 3.0 | 0.00 | 0.00 | 0.00 | 29 | 1011.0 |
| 20260508144405 | 58 | 242 | 0.0 | 5.0 | 0.00 | 0.00 | 0.00 | 31 | 1011.1 |
| 20260508143905 | 58 | 209 | 2.0 | 5.0 | 0.00 | 0.00 | 0.00 | 31 | 1011.1 |
| 20260508142905 | 57 | 257 | 1.0 | 2.0 | 0.00 | 0.00 | 0.00 | 35 | 1011.2 |
| 20260508141905 | 56 | 261 | 1.0 | 2.0 | 0.00 | 0.00 | 0.00 | 33 | 1011.4 |
| 20260508140905 | 54 | 323 | 0.0 | 3.0 | 0.00 | 0.00 | 0.00 | 35 | 1011.5 |
| 20260508140404 | 53 | 4 | 1.0 | 3.0 | 0.00 | 0.00 | 0.00 | 38 | 1011.5 |
| 20260508135405 | 51 | 144 | 0.0 | 2.0 | 0.00 | 0.00 | 0.00 | 44 | 1011.6 |
| 20260508134905 | 50 | 144 | 0.0 | 2.0 | 0.00 | 0.00 | 0.00 | 45 | 1011.7 |
| 20260508134405 | 49 | 144 | 0.0 | 3.0 | 0.00 | 0.00 | 0.00 | 46 | 1011.7 |
| 20260508133905 | 48 | 144 | 2.0 | 3.0 | 0.00 | 0.00 | 0.00 | 46 | 1011.7 |
| 20260508133405 | 47 | 144 | 1.0 | 3.0 | 0.00 | 0.00 | 0.00 | 48 | 1011.7 |
| 20260508132405 | 44 | 144 | 1.0 | 2.0 | 0.00 | 0.00 | 0.00 | 51 | 1011.7 |
| 20260508130905 | 41 | 144 | 1.0 | 3.0 | 0.00 | 0.00 | 0.00 | 54 | 1011.6 |
| 20260508130404 | 40 | 144 | 1.0 | 2.0 | 0.00 | 0.00 | 0.00 | 55 | 1011.5 |
| 20260508125405 | 40 | 144 | 0.0 | 3.0 | 0.00 | 0.00 | 0.00 | 55 | 1011.4 |
| 20260508122905 | 39 | 148 | 2.0 | 5.0 | 0.00 | 0.00 | 0.00 | 54 | 1011.4 |
| 20260508122405 | 39 | 149 | 1.0 | 3.0 | 0.00 | 0.00 | 0.00 | 55 | 1011.5 |
| 20260508121405 | 37 | 153 | 3.0 | 6.0 | 0.00 | 0.00 | 0.00 | 58 | 1011.5 |
| 20260508120905 | 36 | 140 | 2.0 | 3.0 | 0.00 | 0.00 | 0.00 | 60 | 1011.6 |
| 20260508115404 | 36 | 143 | 2.0 | 3.0 | 0.00 | 0.00 | 0.00 | 59 | 1011.4 |
| 20260508114406 | 36 | 143 | 0.0 | 1.0 | 0.00 | 0.00 | 0.00 | 60 | 1011.4 |
| 20260508113905 | 36 | 143 | 0.0 | 2.0 | 0.00 | 0.00 | 0.00 | 61 | 1011.4 |
| 20260508112404 | 37 | 143 | 1.0 | 2.0 | 0.00 | 0.00 | 0.00 | 57 | 1011.3 |
| 20260508111905 | 37 | 143 | 1.0 | 2.0 | 0.00 | 0.00 | 0.00 | 57 | 1011.2 |
| 20260508111405 | 37 | 143 | 0.0 | 2.0 | 0.00 | 0.00 | 0.00 | 56 | 1011.4 |
| 20260508110904 | 38 | 143 | 0.0 | 2.0 | 0.00 | 0.00 | 0.00 | 56 | 1011.2 |
| 20260508110404 | 38 | 143 | 0.0 | 2.0 | 0.00 | 0.00 | 0.00 | 56 | 1011.1 |
| 20260508105904 | 38 | 143 | 1.0 | 2.0 | 0.00 | 0.00 | 0.00 | 56 | 1011.1 |
| 20260508104905 | 38 | 143 | 0.0 | 2.0 | 0.00 | 0.00 | 0.00 | 55 | 1011.0 |
| 20260508104405 | 38 | 143 | 0.0 | 2.0 | 0.00 | 0.00 | 0.00 | 55 | 1010.8 |
| 20260508103404 | 38 | 143 | 1.0 | 3.0 | 0.00 | 0.00 | 0.00 | 54 | 1010.7 |
| 20260508102405 | 39 | 143 | 0.0 | 3.0 | 0.00 | 0.00 | 0.00 | 52 | 1010.5 |
| 20260508095904 | 40 | 143 | 0.0 | 2.0 | 0.00 | 0.00 | 0.00 | 48 | 1010.5 |
| 20260508094905 | 42 | 143 | 0.0 | 2.0 | 0.00 | 0.00 | 0.00 | 45 | 1010.5 |
| 20260508093405 | 43 | 143 | 0.0 | 1.0 | 0.00 | 0.00 | 0.00 | 41 | 1010.7 |
| 20260508092905 | 43 | 143 | 0.0 | 3.0 | 0.00 | 0.00 | 0.00 | 40 | 1010.7 |
| 20260508092405 | 43 | 143 | 1.0 | 3.0 | 0.00 | 0.00 | 0.00 | 39 | 1010.7 |
| 20260508085904 | 44 | 146 | 2.0 | 3.0 | 0.00 | 0.00 | 0.00 | 36 | 1010.9 |
| 20260508085405 | 44 | 144 | 2.0 | 3.0 | 0.00 | 0.00 | 0.00 | 35 | 1010.9 |
| 20260508082905 | 45 | 159 | 1.0 | 5.0 | 0.00 | 0.00 | 0.00 | 34 | 1011.2 |
| 20260508080905 | 45 | 144 | 3.0 | 7.0 | 0.00 | 0.00 | 0.00 | 33 | 1011.4 |
| 20260508074905 | 45 | 144 | 1.0 | 3.0 | 0.00 | 0.00 | 0.00 | 34 | 1011.6 |
| 20260508074405 | 44 | 145 | 1.0 | 3.0 | 0.00 | 0.00 | 0.00 | 34 | 1011.6 |
| 20260508073904 | 45 | 144 | 1.0 | 3.0 | 0.00 | 0.00 | 0.00 | 33 | 1011.7 |
| 20260508072905 | 44 | 144 | 1.0 | 5.0 | 0.00 | 0.00 | 0.00 | 34 | 1011.8 |
| 20260508071405 | 45 | 144 | 1.0 | 3.0 | 0.00 | 0.00 | 0.00 | 34 | 1011.7 |
| 20260508070905 | 45 | 144 | 2.0 | 3.0 | 0.00 | 0.00 | 0.00 | 34 | 1011.7 |
| 20260508070405 | 45 | 148 | 2.0 | 3.0 | 0.00 | 0.00 | 0.00 | 34 | 1011.7 |
| 20260508065404 | 45 | 149 | 1.0 | 2.0 | 0.00 | 0.00 | 0.00 | 33 | 1011.9 |
| 20260508063905 | 46 | 147 | 3.0 | 5.0 | 0.00 | 0.00 | 0.00 | 33 | 1011.9 |
| 20260508063405 | 46 | 144 | 1.0 | 3.0 | 0.00 | 0.00 | 0.00 | 33 | 1011.9 |
| 20260508062904 | 46 | 146 | 3.0 | 3.0 | 0.00 | 0.00 | 0.00 | 31 | 1011.9 |
| 20260508062404 | 46 | 146 | 2.0 | 3.0 | 0.00 | 0.00 | 0.00 | 32 | 1012.0 |
| 20260508061905 | 46 | 141 | 2.0 | 3.0 | 0.00 | 0.00 | 0.00 | 32 | 1012.0 |
| 20260508061404 | 46 | 141 | 2.0 | 5.0 | 0.00 | 0.00 | 0.00 | 33 | 1012.0 |
| 20260508055405 | 45 | 151 | 0.0 | 1.0 | 0.00 | 0.00 | 0.00 | 33 | 1012.1 |
| 20260508054905 | 45 | 151 | 0.0 | 0.0 | 0.00 | 0.00 | 0.00 | 34 | 1012.1 |
| 20260508054405 | 46 | 151 | 0.0 | 0.0 | 0.00 | 0.00 | 0.00 | 34 | 1012.1 |
| 20260508053905 | 46 | 151 | 0.0 | 0.0 | 0.00 | 0.00 | 0.00 | 34 | 1012.1 |
| 20260508050904 | 47 | 151 | 0.0 | 3.0 | 0.00 | 0.00 | 0.00 | 32 | 1012.1 |
| 20260508050405 | 48 | 157 | 1.0 | 3.0 | 0.00 | 0.00 | 0.00 | 32 | 1012.1 |
| 20260508045905 | 48 | 148 | 0.0 | 1.0 | 0.00 | 0.00 | 0.00 | 32 | 1012.1 |
| 20260508044904 | 49 | 148 | 0.0 | 3.0 | 0.00 | 0.00 | 0.00 | 31 | 1012.0 |
| 20260508044405 | 49 | 148 | 0.0 | 3.0 | 0.00 | 0.00 | 0.00 | 30 | 1012.1 |
| 20260508043905 | 49 | 148 | 3.0 | 3.0 | 0.00 | 0.00 | 0.00 | 29 | 1012.1 |
| 20260508042404 | 50 | 157 | 0.0 | 3.0 | 0.00 | 0.00 | 0.00 | 29 | 1012.0 |
| 20260508035404 | 54 | 5 | 0.0 | 2.0 | 0.00 | 0.00 | 0.00 | 24 | 1012.0 |
| 20260508032904 | 57 | 0 | 1.0 | 5.0 | 0.00 | 0.00 | 0.00 | 20 | 1011.7 |
| 20260508031905 | 58 | 127 | 1.0 | 5.0 | 0.00 | 0.00 | 0.00 | 17 | 1011.4 |
| 20260508031404 | 59 | 179 | 1.0 | 5.0 | 0.00 | 0.00 | 0.00 | 16 | 1011.3 |
| 20260508030404 | 60 | 165 | 2.0 | 7.0 | 0.00 | 0.00 | 0.00 | 16 | 1011.0 |
| 20260508025904 | 60 | 138 | 2.0 | 3.0 | 0.00 | 0.00 | 0.00 | 15 | 1010.9 |
| 20260508024904 | 61 | 131 | 1.0 | 5.0 | 0.00 | 0.00 | 0.00 | 15 | 1010.7 |
| 20260508024404 | 61 | 149 | 2.0 | 6.0 | 0.00 | 0.00 | 0.00 | 15 | 1010.7 |
| 20260508022405 | 62 | 136 | 2.0 | 7.0 | 0.00 | 0.00 | 0.00 | 14 | 1010.7 |
| 20260508021905 | 62 | 139 | 2.0 | 6.0 | 0.00 | 0.00 | 0.00 | 14 | 1010.8 |
| 20260508021405 | 63 | 137 | 2.0 | 6.0 | 0.00 | 0.00 | 0.00 | 14 | 1010.7 |
| 20260508020904 | 63 | 129 | 3.0 | 5.0 | 0.00 | 0.00 | 0.00 | 14 | 1010.7 |
| 20260508020405 | 63 | 148 | 2.0 | 5.0 | 0.00 | 0.00 | 0.00 | 14 | 1010.7 |
| 20260508014404 | 65 | 0 | 2.0 | 5.0 | 0.00 | 0.00 | 0.00 | 13 | 1010.6 |
| 20260508012404 | 66 | 167 | 3.0 | 9.0 | 0.00 | 0.00 | 0.00 | 13 | 1010.6 |
| 20260508011405 | 67 | 149 | 3.0 | 8.0 | 0.00 | 0.00 | 0.00 | 13 | 1010.5 |
| 20260508010904 | 67 | 175 | 2.0 | 5.0 | 0.00 | 0.00 | 0.00 | 12 | 1010.5 |
| 20260508010404 | 67 | 134 | 1.0 | 5.0 | 0.00 | 0.00 | 0.00 | 12 | 1010.5 |
| 20260508005405 | 68 | 214 | 2.0 | 5.0 | 0.00 | 0.00 | 0.00 | 13 | 1010.5 |
| 20260508004904 | 68 | 160 | 2.0 | 5.0 | 0.00 | 0.00 | 0.00 | 13 | 1010.4 |
| 20260508003404 | 68 | 139 | 3.0 | 7.0 | 0.00 | 0.00 | 0.00 | 13 | 1010.6 |
| 20260508002904 | 69 | 158 | 3.0 | 7.0 | 0.00 | 0.00 | 0.00 | 13 | 1010.5 |
| 20260508002405 | 69 | 204 | 3.0 | 6.0 | 0.00 | 0.00 | 0.00 | 14 | 1010.6 |
| 20260508001404 | 69 | 158 | 2.0 | 7.0 | 0.00 | 0.00 | 0.00 | 14 | 1010.6 |
| 20260508000904 | 70 | 199 | 2.0 | 7.0 | 0.00 | 0.00 | 0.00 | 15 | 1010.6 |
| 20260508000405 | 70 | 173 | 3.0 | 7.0 | 0.00 | 0.00 | 0.00 | 15 | 1010.6 |
| 20260507233405 | 71 | 232 | 2.0 | 7.0 | 0.00 | 0.00 | 0.00 | 18 | 1010.7 |
| 20260507232905 | 71 | 263 | 1.0 | 3.0 | 0.00 | 0.00 | 0.00 | 18 | 1010.8 |
| 20260507231904 | 70 | 218 | 2.0 | 5.0 | 0.00 | 0.00 | 0.00 | 19 | 1011.1 |
| 20260507230405 | 70 | 135 | 2.0 | 8.0 | 0.00 | 0.00 | 0.00 | 18 | 1011.4 |
| 20260507224904 | 70 | 222 | 1.0 | 6.0 | 0.00 | 0.00 | 0.00 | 17 | 1011.6 |
| 20260507223405 | 70 | 63 | 2.0 | 5.0 | 0.00 | 0.00 | 0.00 | 17 | 1011.9 |
| 20260507222905 | 70 | 97 | 2.0 | 3.0 | 0.00 | 0.00 | 0.00 | 16 | 1012.0 |
| 20260507221405 | 70 | 331 | 2.0 | 3.0 | 0.00 | 0.00 | 0.00 | 17 | 1012.4 |
| 20260507220404 | 70 | 114 | 1.0 | 3.0 | 0.00 | 0.00 | 0.00 | 17 | 1012.6 |
| 20260507215904 | 70 | 312 | 2.0 | 6.0 | 0.00 | 0.00 | 0.00 | 16 | 1012.6 |
| 20260507212905 | 69 | 188 | 1.0 | 6.0 | 0.00 | 0.00 | 0.00 | 15 | 1013.2 |
| 20260507210904 | 70 | 301 | 2.0 | 8.0 | 0.00 | 0.00 | 0.00 | 16 | 1013.6 |
| 20260507205904 | 70 | 218 | 3.0 | 9.0 | 0.00 | 0.00 | 0.00 | 13 | 1013.8 |
| 20260507205404 | 70 | 290 | 2.0 | 10.0 | 0.00 | 0.00 | 0.00 | 13 | 1013.8 |
| 20260507204904 | 70 | 197 | 3.0 | 10.0 | 0.00 | 0.00 | 0.00 | 11 | 1013.9 |
| 20260507204404 | 71 | 344 | 2.0 | 7.0 | 0.00 | 0.00 | 0.00 | 13 | 1014.1 |
| 20260507203405 | 70 | 33 | 3.0 | 9.0 | 0.00 | 0.00 | 0.00 | 12 | 1014.2 |
| 20260507202905 | 70 | 261 | 3.0 | 7.0 | 0.00 | 0.00 | 0.00 | 12 | 1014.4 |
| 20260507202404 | 70 | 194 | 2.0 | 5.0 | 0.00 | 0.00 | 0.00 | 11 | 1014.5 |
| 20260507201905 | 70 | 29 | 2.0 | 9.0 | 0.00 | 0.00 | 0.00 | 14 | 1014.6 |
| 20260507201404 | 70 | 64 | 3.0 | 9.0 | 0.00 | 0.00 | 0.00 | 11 | 1014.7 |
| 20260507200904 | 70 | 268 | 2.0 | 6.0 | 0.00 | 0.00 | 0.00 | 14 | 1014.8 |
| 20260507200404 | 69 | 318 | 2.0 | 6.0 | 0.00 | 0.00 | 0.00 | 14 | 1014.8 |
| 20260507195905 | 69 | 27 | 2.0 | 6.0 | 0.00 | 0.00 | 0.00 | 11 | 1014.9 |
| 20260507195404 | 69 | 74 | 2.0 | 9.0 | 0.00 | 0.00 | 0.00 | 11 | 1015.0 |
| 20260507194904 | 68 | 300 | 2.0 | 9.0 | 0.00 | 0.00 | 0.00 | 13 | 1015.0 |
| 20260507194404 | 68 | 222 | 3.0 | 8.0 | 0.00 | 0.00 | 0.00 | 14 | 1015.0 |